Location: Goettingen
(51.5300°N, 9.9433°E)
Time: 22:27:07
(UTC+02:00)

ISS - Pass Details

Date: 15 September 2019
Orbit: 411 x 421 km, 51.6° (Epoch: 19 September)

Event Time Altitude Azimuth Distance (km) Brightness Sun altitude
Exits shadow 05:32:28 12° 195° (SSW) 1,372 -1.5 -13.1°
Drops below altitude 10° 05:33:02 10° 186° (S) 1,486 -1.3 -13.1°
Sets 05:35:50 0° 161° (SSE) 2,346 0.0 -12.6°
